�N����,�����b,���ԉ��x,���Ԏ��x,��󒲎�,����,�����W
2005/1/1,0:00:00,17.7 ,44.7 ,11.7 ,11.3 ,16.4 
2005/1/1,0:15:00,17.7 ,44.7 ,11.7 ,11.4 ,16.3 
2005/1/1,0:30:00,17.6 ,44.8 ,11.7 ,11.5 ,16.3 
2005/1/1,0:45:00,17.6 ,44.8 ,11.7 ,11.5 ,16.2 
2005/1/1,1:00:00,17.5 ,44.9 ,11.7 ,11.6 ,16.2 
2005/1/1,1:15:00,17.5 ,44.9 ,11.6 ,11.7 ,16.2 
2005/1/1,1:30:00,17.4 ,44.8 ,11.6 ,11.7 ,16.1 
2005/1/1,1:45:00,17.4 ,44.9 ,11.6 ,11.8 ,16.1 
2005/1/1,2:00:00,17.4 ,45.0 ,11.6 ,11.9 ,16.1 
2005/1/1,2:15:00,17.3 ,45.1 ,11.6 ,11.9 ,16.1 
2005/1/1,2:30:00,17.3 ,45.0 ,11.6 ,12.0 ,16.0 
2005/1/1,2:45:00,17.3 ,45.0 ,11.5 ,12.0 ,16.0 
2005/1/1,3:00:00,17.2 ,45.1 ,11.5 ,12.1 ,16.0 
2005/1/1,3:15:00,17.2 ,45.2 ,11.5 ,12.2 ,15.9 
2005/1/1,3:30:00,17.1 ,45.2 ,11.4 ,12.2 ,15.9 
2005/1/1,3:45:00,17.1 ,45.2 ,11.4 ,12.3 ,15.9 
2005/1/1,4:00:00,17.1 ,45.2 ,11.4 ,12.3 ,15.9 
2005/1/1,4:15:00,17.0 ,45.2 ,11.4 ,12.4 ,15.8 
2005/1/1,4:30:00,17.0 ,45.3 ,11.3 ,12.4 ,15.8 
2005/1/1,4:45:00,16.9 ,45.3 ,11.3 ,12.5 ,15.8 
2005/1/1,5:00:00,16.9 ,45.3 ,11.3 ,12.5 ,15.8 
2005/1/1,5:15:00,16.9 ,45.2 ,11.3 ,12.6 ,15.7 
2005/1/1,5:30:00,16.9 ,45.3 ,11.3 ,12.6 ,15.7 
2005/1/1,5:45:00,16.9 ,45.2 ,11.3 ,12.6 ,15.7 
2005/1/1,6:00:00,16.9 ,45.1 ,11.3 ,12.7 ,15.7 
2005/1/1,6:15:00,16.9 ,45.0 ,11.2 ,12.7 ,15.7 
2005/1/1,6:30:00,16.9 ,45.0 ,11.2 ,12.8 ,15.7 
2005/1/1,6:45:00,17.0 ,44.9 ,11.2 ,12.8 ,15.7 
2005/1/1,7:00:00,16.9 ,44.9 ,11.2 ,12.9 ,15.7 
2005/1/1,7:15:00,17.0 ,44.8 ,11.2 ,12.9 ,15.7 
2005/1/1,7:30:00,17.0 ,44.7 ,11.2 ,12.9 ,15.7 
2005/1/1,7:45:00,17.1 ,44.6 ,11.2 ,13.0 ,15.8 
2005/1/1,8:00:00,17.1 ,44.6 ,11.2 ,13.0 ,15.8 
2005/1/1,8:15:00,17.2 ,44.5 ,11.2 ,13.1 ,15.8 
2005/1/1,8:30:00,17.2 ,44.3 ,11.2 ,13.1 ,15.9 
2005/1/1,8:45:00,17.2 ,44.2 ,11.2 ,13.1 ,16.0 
2005/1/1,9:00:00,17.3 ,44.1 ,11.2 ,13.2 ,16.0 
2005/1/1,9:15:00,17.3 ,44.1 ,11.2 ,13.2 ,16.1 
2005/1/1,9:30:00,17.5 ,43.7 ,11.2 ,13.2 ,16.1 
2005/1/1,9:45:00,17.4 ,43.8 ,11.2 ,13.3 ,16.2 
2005/1/1,10:00:00,17.4 ,43.9 ,11.2 ,13.3 ,16.2 
2005/1/1,10:15:00,17.5 ,43.8 ,11.2 ,13.3 ,16.2 
2005/1/1,10:30:00,17.8 ,43.1 ,11.2 ,13.4 ,16.4 
2005/1/1,10:45:00,17.7 ,43.5 ,11.3 ,13.4 ,16.5 
2005/1/1,11:00:00,17.6 ,43.6 ,11.3 ,13.4 ,16.5 
2005/1/1,11:15:00,17.7 ,43.5 ,11.3 ,13.5 ,16.4 
2005/1/1,11:30:00,17.7 ,43.4 ,11.3 ,13.5 ,16.4 
2005/1/1,11:45:00,17.7 ,43.4 ,11.3 ,13.5 ,16.4 
2005/1/1,12:00:00,17.7 ,43.4 ,11.3 ,13.6 ,16.5 
2005/1/1,12:15:00,17.7 ,43.5 ,11.3 ,13.6 ,16.5 
2005/1/1,12:30:00,17.7 ,43.5 ,11.3 ,13.6 ,16.4 
2005/1/1,12:45:00,17.7 ,43.3 ,11.3 ,13.7 ,16.4 
2005/1/1,13:00:00,17.7 ,43.3 ,11.3 ,13.7 ,16.4 
2005/1/1,13:15:00,17.7 ,43.2 ,11.3 ,13.7 ,16.5 
2005/1/1,13:30:00,17.7 ,43.2 ,11.3 ,13.7 ,16.5 
2005/1/1,13:45:00,17.7 ,43.3 ,11.3 ,13.8 ,16.5 
2005/1/1,14:00:00,17.6 ,43.3 ,11.3 ,13.8 ,16.4 
2005/1/1,14:15:00,17.6 ,43.3 ,11.3 ,13.8 ,16.4 
2005/1/1,14:30:00,17.6 ,43.1 ,11.4 ,13.8 ,16.4 
2005/1/1,14:45:00,17.6 ,43.0 ,11.4 ,13.9 ,16.4 
2005/1/1,15:00:00,17.5 ,42.9 ,11.4 ,13.9 ,16.4 
2005/1/1,15:15:00,17.5 ,42.9 ,11.4 ,13.9 ,16.3 
2005/1/1,15:30:00,17.4 ,42.9 ,11.3 ,13.9 ,16.3 
2005/1/1,15:45:00,17.4 ,42.9 ,11.3 ,14.0 ,16.3 
2005/1/1,16:00:00,17.3 ,43.0 ,11.3 ,14.0 ,16.2 
2005/1/1,16:15:00,17.3 ,43.0 ,11.3 ,14.0 ,16.1 
2005/1/1,16:30:00,17.2 ,43.1 ,11.3 ,14.0 ,16.1 
2005/1/1,16:45:00,17.2 ,42.9 ,11.3 ,14.1 ,16.0 
2005/1/1,17:00:00,17.1 ,42.9 ,11.3 ,14.1 ,16.0 
2005/1/1,17:15:00,17.1 ,42.7 ,11.2 ,14.1 ,15.9 
2005/1/1,17:30:00,17.0 ,42.8 ,11.2 ,14.1 ,15.9 
2005/1/1,17:45:00,17.0 ,42.8 ,11.2 ,14.1 ,15.8 
2005/1/1,18:00:00,16.9 ,43.0 ,11.2 ,14.2 ,15.7 
2005/1/1,18:15:00,16.9 ,43.1 ,11.2 ,14.2 ,15.7 
2005/1/1,18:30:00,16.8 ,43.1 ,11.2 ,14.2 ,15.6 
2005/1/1,18:45:00,16.8 ,43.3 ,11.2 ,14.2 ,15.6 
2005/1/1,19:00:00,16.7 ,43.4 ,11.1 ,14.2 ,15.5 
2005/1/1,19:15:00,16.7 ,43.5 ,11.1 ,14.2 ,15.4 
2005/1/1,19:30:00,16.6 ,43.5 ,11.1 ,14.3 ,15.4 
2005/1/1,19:45:00,16.6 ,43.6 ,11.1 ,14.3 ,15.3 
2005/1/1,20:00:00,16.5 ,43.7 ,11.1 ,14.3 ,15.2 
2005/1/1,20:15:00,16.5 ,43.8 ,11.1 ,14.3 ,15.2 
2005/1/1,20:30:00,16.4 ,43.9 ,11.0 ,14.3 ,15.2 
2005/1/1,20:45:00,16.3 ,43.8 ,11.0 ,14.3 ,15.1 
2005/1/1,21:00:00,16.3 ,43.9 ,11.0 ,14.3 ,15.0 
2005/1/1,21:15:00,16.2 ,43.9 ,11.0 ,14.3 ,15.0 
2005/1/1,21:30:00,16.2 ,43.9 ,10.9 ,14.3 ,14.9 
2005/1/1,21:45:00,16.1 ,44.0 ,10.9 ,14.4 ,14.9 
2005/1/1,22:00:00,16.1 ,44.0 ,10.9 ,14.4 ,14.8 
2005/1/1,22:15:00,16.0 ,44.0 ,10.9 ,14.4 ,14.8 
2005/1/1,22:30:00,15.9 ,44.1 ,10.8 ,14.4 ,14.7 
2005/1/1,22:45:00,15.9 ,44.2 ,10.8 ,14.4 ,14.7 
2005/1/1,23:00:00,15.8 ,44.2 ,10.8 ,14.4 ,14.7 
2005/1/1,23:15:00,15.8 ,44.3 ,10.8 ,14.4 ,14.6 
2005/1/1,23:30:00,15.7 ,44.3 ,10.7 ,14.4 ,14.6 
2005/1/1,23:45:00,15.7 ,44.3 ,10.7 ,14.4 ,14.5 
2005/1/2,0:00:00,15.6 ,44.4 ,10.7 ,14.4 ,14.4 
2005/1/2,0:15:00,15.6 ,44.5 ,10.7 ,14.4 ,14.4 
2005/1/2,0:30:00,15.5 ,44.5 ,10.6 ,14.4 ,14.4 
2005/1/2,0:45:00,15.4 ,44.5 ,10.6 ,14.5 ,14.3 
2005/1/2,1:00:00,15.4 ,44.5 ,10.6 ,14.5 ,14.3 
2005/1/2,1:15:00,15.3 ,44.6 ,10.6 ,14.5 ,14.2 
2005/1/2,1:30:00,15.3 ,44.7 ,10.6 ,14.5 ,14.2 
2005/1/2,1:45:00,15.2 ,44.8 ,10.5 ,14.5 ,14.2 
2005/1/2,2:00:00,15.2 ,44.7 ,10.5 ,14.5 ,14.1 
2005/1/2,2:15:00,15.1 ,44.8 ,10.5 ,14.5 ,14.1 
2005/1/2,2:30:00,15.1 ,44.8 ,10.5 ,14.5 ,14.1 
2005/1/2,2:45:00,15.0 ,44.9 ,10.4 ,14.5 ,14.0 
2005/1/2,3:00:00,15.0 ,44.8 ,10.4 ,14.5 ,14.0 
2005/1/2,3:15:00,14.9 ,44.9 ,10.4 ,14.5 ,14.0 
2005/1/2,3:30:00,14.9 ,45.0 ,10.4 ,14.5 ,13.9 
2005/1/2,3:45:00,14.9 ,45.1 ,10.3 ,14.5 ,13.9 
2005/1/2,4:00:00,14.8 ,45.0 ,10.3 ,14.5 ,13.9 
2005/1/2,4:15:00,14.8 ,45.2 ,10.3 ,14.5 ,13.8 
2005/1/2,4:30:00,14.8 ,45.2 ,10.3 ,14.5 ,13.8 
2005/1/2,4:45:00,14.8 ,45.1 ,10.2 ,14.5 ,13.8 
2005/1/2,5:00:00,14.8 ,45.1 ,10.2 ,14.5 ,13.8 
2005/1/2,5:15:00,14.8 ,45.1 ,10.2 ,14.5 ,13.7 
2005/1/2,5:30:00,14.8 ,45.0 ,10.2 ,14.4 ,13.7 
2005/1/2,5:45:00,14.8 ,44.9 ,10.2 ,14.5 ,13.8 
2005/1/2,6:00:00,14.8 ,45.0 ,10.1 ,14.4 ,13.8 
2005/1/2,6:15:00,14.9 ,44.9 ,10.1 ,14.4 ,13.8 
2005/1/2,6:30:00,14.9 ,44.8 ,10.1 ,14.4 ,13.9 
2005/1/2,6:45:00,15.0 ,44.8 ,10.1 ,14.4 ,13.8 
2005/1/2,7:00:00,15.0 ,44.8 ,10.1 ,14.4 ,13.9 
2005/1/2,7:15:00,15.1 ,44.6 ,10.1 ,14.4 ,14.0 
2005/1/2,7:30:00,15.1 ,44.7 ,10.1 ,14.4 ,14.0 
2005/1/2,7:45:00,15.2 ,44.6 ,10.1 ,14.4 ,14.0 
2005/1/2,8:00:00,15.3 ,44.5 ,10.1 ,14.4 ,14.0 
2005/1/2,8:15:00,15.3 ,44.5 ,10.1 ,14.4 ,14.0 
2005/1/2,8:30:00,15.4 ,44.3 ,10.1 ,14.4 ,14.1 
2005/1/2,8:45:00,15.8 ,43.6 ,10.1 ,14.4 ,14.2 
2005/1/2,9:00:00,15.9 ,43.6 ,10.1 ,14.4 ,14.4 
2005/1/2,9:15:00,16.4 ,42.8 ,10.2 ,14.4 ,14.6 
2005/1/2,9:30:00,16.9 ,42.2 ,10.2 ,14.4 ,15.1 
2005/1/2,9:45:00,17.3 ,41.8 ,10.3 ,14.4 ,15.6 
2005/1/2,10:00:00,17.1 ,42.4 ,10.3 ,14.4 ,15.9 
2005/1/2,10:15:00,17.0 ,42.9 ,10.3 ,14.4 ,15.8 
2005/1/2,10:30:00,16.9 ,43.2 ,10.3 ,14.4 ,15.7 
2005/1/2,10:45:00,16.8 ,43.3 ,10.3 ,14.4 ,15.7 
2005/1/2,11:00:00,17.2 ,42.8 ,10.4 ,14.4 ,15.7 
2005/1/2,11:15:00,17.4 ,42.3 ,10.4 ,14.4 ,15.9 
2005/1/2,11:30:00,17.9 ,41.7 ,10.5 ,14.4 ,16.3 
2005/1/2,11:45:00,18.2 ,41.4 ,10.6 ,14.4 ,16.8 
2005/1/2,12:00:00,18.4 ,41.2 ,10.6 ,14.4 ,17.1 
2005/1/2,12:15:00,18.5 ,41.0 ,10.7 ,14.4 ,17.2 
2005/1/2,12:30:00,18.7 ,40.9 ,10.7 ,14.4 ,17.4 
2005/1/2,12:45:00,18.8 ,40.8 ,10.8 ,14.4 ,17.6 
2005/1/2,13:00:00,18.8 ,41.0 ,10.8 ,14.5 ,17.5 
2005/1/2,13:15:00,18.8 ,41.0 ,10.9 ,14.5 ,17.5 
2005/1/2,13:30:00,18.8 ,41.3 ,10.9 ,14.5 ,17.5 
2005/1/2,13:45:00,18.7 ,41.6 ,10.9 ,14.5 ,17.5 
2005/1/2,14:00:00,18.6 ,42.0 ,11.0 ,14.5 ,17.4 
2005/1/2,14:15:00,18.4 ,42.3 ,11.0 ,14.5 ,17.2 
2005/1/2,14:30:00,18.3 ,42.5 ,11.0 ,14.5 ,17.1 
2005/1/2,14:45:00,18.2 ,42.6 ,11.1 ,14.5 ,17.1 
2005/1/2,15:00:00,18.2 ,42.6 ,11.1 ,14.6 ,17.0 
2005/1/2,15:15:00,18.1 ,42.7 ,11.1 ,14.6 ,16.9 
2005/1/2,15:30:00,18.0 ,42.8 ,11.2 ,14.6 ,16.8 
2005/1/2,15:45:00,18.1 ,42.7 ,11.2 ,5.6 ,16.7 
2005/1/2,16:00:00,17.9 ,43.5 ,11.2 ,6.1 ,16.6 
2005/1/2,16:15:00,17.9 ,43.5 ,11.2 ,6.1 ,16.7 
2005/1/2,16:30:00,17.8 ,43.7 ,11.2 ,6.2 ,16.8 
2005/1/2,16:45:00,17.7 ,44.1 ,11.2 ,6.3 ,16.7 
2005/1/2,17:00:00,17.7 ,43.8 ,11.2 ,6.4 ,16.5 
2005/1/2,17:15:00,17.7 ,43.9 ,11.2 ,6.6 ,16.5 
2005/1/2,17:30:00,17.7 ,44.0 ,11.2 ,6.7 ,16.4 
2005/1/2,17:45:00,17.6 ,44.3 ,11.2 ,6.8 ,16.3 
2005/1/2,18:00:00,17.7 ,44.2 ,11.2 ,6.9 ,16.3 
2005/1/2,18:15:00,17.5 ,46.1 ,11.2 ,6.4 ,17.1 
2005/1/2,18:30:00,17.6 ,47.5 ,11.2 ,6.6 ,17.4 
2005/1/2,18:45:00,17.6 ,48.3 ,11.2 ,6.6 ,17.2 
2005/1/2,19:00:00,17.9 ,47.8 ,11.2 ,6.7 ,16.9 
2005/1/2,19:15:00,17.7 ,49.2 ,11.2 ,6.6 ,17.0 
2005/1/2,19:30:00,17.5 ,49.6 ,11.2 ,6.6 ,16.8 
2005/1/2,19:45:00,17.5 ,49.6 ,11.2 ,6.5 ,16.6 
2005/1/2,20:00:00,17.5 ,49.9 ,11.2 ,6.5 ,16.3 
2005/1/2,20:15:00,17.4 ,50.1 ,11.2 ,6.6 ,16.2 
2005/1/2,20:30:00,17.4 ,49.9 ,11.2 ,6.7 ,16.1 
2005/1/2,20:45:00,17.3 ,49.7 ,11.2 ,6.8 ,16.0 
2005/1/2,21:00:00,17.3 ,49.4 ,11.2 ,6.9 ,15.9 
2005/1/2,21:15:00,17.2 ,49.2 ,11.2 ,7.0 ,15.9 
2005/1/2,21:30:00,17.2 ,48.8 ,11.2 ,7.3 ,15.9 
2005/1/2,21:45:00,17.1 ,48.5 ,11.2 ,7.4 ,15.7 
2005/1/2,22:00:00,17.2 ,48.3 ,11.2 ,7.4 ,15.8 
2005/1/2,22:15:00,17.1 ,48.5 ,11.2 ,7.5 ,15.9 
2005/1/2,22:30:00,17.1 ,48.2 ,11.1 ,7.6 ,15.9 
2005/1/2,22:45:00,17.1 ,48.7 ,11.1 ,7.7 ,15.8 
2005/1/2,23:00:00,17.1 ,48.9 ,11.1 ,7.2 ,15.9 
2005/1/2,23:15:00,17.0 ,48.5 ,11.1 ,7.3 ,16.0 
2005/1/2,23:30:00,16.8 ,48.3 ,11.1 ,7.3 ,15.9 
2005/1/2,23:45:00,16.7 ,48.0 ,11.1 ,7.4 ,15.8 
2005/1/3,0:00:00,16.6 ,47.8 ,11.1 ,7.4 ,15.7 
2005/1/3,0:15:00,16.6 ,47.5 ,11.1 ,7.6 ,15.6 
2005/1/3,0:30:00,16.5 ,47.3 ,11.1 ,7.6 ,15.5 
2005/1/3,0:45:00,16.5 ,47.0 ,11.0 ,7.7 ,15.4 
2005/1/3,1:00:00,16.4 ,46.9 ,11.0 ,7.8 ,15.4 
2005/1/3,1:15:00,16.4 ,46.6 ,11.0 ,7.9 ,15.4 
2005/1/3,1:30:00,16.3 ,46.5 ,11.0 ,8.0 ,15.3 
2005/1/3,1:45:00,16.2 ,46.4 ,10.9 ,8.1 ,15.3 
2005/1/3,2:00:00,16.2 ,46.2 ,10.9 ,8.2 ,15.2 
2005/1/3,2:15:00,16.1 ,46.3 ,10.9 ,8.2 ,15.1 
2005/1/3,2:30:00,16.1 ,46.1 ,10.9 ,8.3 ,15.2 
2005/1/3,2:45:00,16.1 ,45.8 ,10.8 ,8.4 ,15.1 
2005/1/3,3:00:00,16.0 ,45.7 ,10.8 ,8.5 ,15.1 
2005/1/3,3:15:00,16.0 ,45.7 ,10.8 ,8.6 ,15.0 
2005/1/3,3:30:00,16.0 ,45.5 ,10.7 ,8.7 ,15.0 
2005/1/3,3:45:00,16.0 ,45.5 ,10.7 ,8.7 ,15.0 
2005/1/3,4:00:00,16.0 ,45.3 ,10.7 ,8.8 ,15.0 
2005/1/3,4:15:00,16.0 ,45.2 ,10.7 ,8.9 ,15.0 
2005/1/3,4:30:00,16.1 ,45.0 ,10.7 ,8.9 ,15.1 
2005/1/3,4:45:00,16.1 ,44.8 ,10.6 ,9.0 ,15.1 
2005/1/3,5:00:00,16.2 ,44.6 ,10.6 ,9.1 ,15.2 
2005/1/3,5:15:00,16.3 ,44.5 ,10.6 ,9.2 ,15.2 
2005/1/3,5:30:00,16.4 ,44.2 ,10.6 ,9.3 ,15.4 
2005/1/3,5:45:00,16.5 ,44.0 ,10.6 ,9.3 ,15.4 
2005/1/3,6:00:00,16.5 ,43.9 ,10.5 ,9.4 ,15.4 
2005/1/3,6:15:00,16.7 ,43.7 ,10.5 ,7.2 ,15.5 
2005/1/3,6:30:00,16.8 ,43.4 ,10.5 ,7.4 ,15.6 
2005/1/3,6:45:00,16.9 ,43.3 ,10.5 ,7.6 ,15.6 
2005/1/3,7:00:00,17.0 ,43.1 ,10.5 ,7.7 ,15.7 
2005/1/3,7:15:00,17.2 ,42.9 ,10.5 ,7.8 ,15.9 
2005/1/3,7:30:00,17.3 ,42.6 ,10.5 ,7.8 ,16.0 
2005/1/3,7:45:00,17.5 ,42.6 ,10.5 ,7.9 ,16.1 
2005/1/3,8:00:00,17.8 ,42.2 ,10.5 ,8.0 ,16.4 
2005/1/3,8:15:00,18.1 ,41.9 ,10.6 ,8.1 ,16.8 
2005/1/3,8:30:00,18.4 ,41.5 ,10.6 ,8.2 ,17.1 
2005/1/3,8:45:00,18.8 ,41.0 ,10.7 ,6.3 ,17.7 
2005/1/3,9:00:00,19.2 ,40.7 ,10.7 ,6.4 ,18.4 
2005/1/3,9:15:00,19.5 ,40.2 ,10.8 ,6.4 ,18.7 
2005/1/3,9:30:00,19.8 ,40.4 ,10.9 ,6.3 ,19.1 
2005/1/3,9:45:00,20.1 ,40.3 ,10.9 ,6.3 ,19.3 
2005/1/3,10:00:00,20.5 ,39.8 ,11.0 ,5.2 ,19.5 
2005/1/3,10:15:00,20.9 ,39.9 ,11.1 ,5.4 ,19.7 
2005/1/3,10:30:00,21.1 ,40.7 ,11.2 ,5.4 ,19.9 
2005/1/3,10:45:00,21.6 ,41.5 ,11.2 ,5.6 ,20.0 
2005/1/3,11:00:00,21.8 ,41.8 ,11.3 ,5.7 ,20.2 
2005/1/3,11:15:00,21.6 ,42.5 ,11.4 ,6.1 ,20.4 
2005/1/3,11:30:00,21.7 ,42.9 ,11.5 ,6.2 ,20.3 
2005/1/3,11:45:00,21.7 ,43.3 ,11.6 ,6.3 ,20.2 
2005/1/3,12:00:00,21.7 ,43.7 ,11.7 ,6.4 ,20.1 
2005/1/3,12:15:00,22.0 ,43.0 ,11.8 ,6.5 ,20.2 
2005/1/3,12:30:00,22.2 ,42.4 ,11.8 ,6.7 ,20.5 
2005/1/3,12:45:00,22.2 ,42.4 ,11.9 ,6.8 ,20.7 
2005/1/3,13:00:00,22.2 ,42.3 ,12.0 ,7.0 ,20.7 
2005/1/3,13:15:00,22.2 ,42.2 ,12.0 ,7.1 ,20.7 
2005/1/3,13:30:00,22.2 ,42.0 ,12.1 ,7.2 ,20.7 
2005/1/3,13:45:00,22.1 ,42.1 ,12.2 ,7.4 ,20.7 
2005/1/3,14:00:00,22.0 ,42.0 ,12.2 ,7.5 ,20.6 
2005/1/3,14:15:00,21.9 ,42.1 ,12.3 ,7.7 ,20.6 
2005/1/3,14:30:00,21.8 ,42.1 ,12.3 ,7.8 ,20.6 
2005/1/3,14:45:00,21.7 ,42.1 ,12.4 ,8.0 ,20.5 
2005/1/3,15:00:00,21.6 ,42.1 ,12.4 ,8.1 ,20.4 
2005/1/3,15:15:00,21.5 ,42.1 ,12.5 ,8.2 ,20.4 
2005/1/3,15:30:00,21.4 ,42.1 ,12.5 ,8.4 ,20.3 
2005/1/3,15:45:00,21.3 ,42.1 ,12.5 ,8.5 ,20.2 
2005/1/3,16:00:00,21.2 ,42.3 ,12.6 ,8.6 ,20.1 
2005/1/3,16:15:00,21.1 ,42.3 ,12.6 ,8.8 ,19.9 
2005/1/3,16:30:00,21.0 ,42.5 ,12.6 ,8.9 ,19.8 
2005/1/3,16:45:00,20.9 ,42.5 ,12.6 ,9.1 ,19.7 
2005/1/3,17:00:00,20.7 ,42.5 ,12.7 ,9.2 ,19.6 
2005/1/3,17:15:00,20.7 ,42.5 ,12.7 ,9.3 ,19.5 
2005/1/3,17:30:00,20.6 ,42.5 ,12.7 ,9.4 ,19.4 
2005/1/3,17:45:00,20.5 ,42.4 ,12.7 ,9.5 ,19.4 
2005/1/3,18:00:00,20.4 ,42.4 ,12.7 ,9.6 ,19.4 
2005/1/3,18:15:00,20.4 ,42.4 ,12.7 ,9.8 ,19.3 
2005/1/3,18:30:00,20.3 ,42.5 ,12.7 ,9.8 ,19.2 
2005/1/3,18:45:00,20.2 ,42.4 ,12.7 ,10.0 ,19.2 
2005/1/3,19:00:00,20.1 ,42.5 ,12.7 ,10.1 ,19.1 
2005/1/3,19:15:00,20.1 ,42.5 ,12.7 ,10.2 ,19.1 
2005/1/3,19:30:00,20.0 ,42.5 ,12.7 ,10.3 ,19.0 
2005/1/3,19:45:00,19.9 ,42.5 ,12.7 ,10.5 ,19.0 
2005/1/3,20:00:00,19.8 ,42.6 ,12.7 ,10.6 ,18.9 
2005/1/3,20:15:00,19.8 ,42.6 ,12.7 ,10.7 ,18.8 
2005/1/3,20:30:00,19.7 ,42.6 ,12.7 ,10.8 ,18.8 
2005/1/3,20:45:00,19.8 ,42.6 ,12.7 ,10.9 ,18.7 
2005/1/3,21:00:00,20.0 ,41.9 ,12.7 ,10.0 ,18.8 
2005/1/3,21:15:00,19.8 ,42.2 ,12.7 ,10.1 ,18.8 
2005/1/3,21:30:00,19.8 ,42.1 ,12.7 ,10.2 ,18.7 
2005/1/3,21:45:00,20.0 ,42.4 ,12.7 ,10.3 ,18.8 
2005/1/3,22:00:00,19.8 ,43.8 ,12.7 ,10.4 ,18.7 
2005/1/3,22:15:00,19.8 ,43.9 ,12.7 ,10.5 ,18.6 
2005/1/3,22:30:00,19.9 ,43.7 ,12.7 ,10.6 ,18.5 
2005/1/3,22:45:00,19.8 ,44.5 ,12.7 ,10.7 ,19.0 
2005/1/3,23:00:00,19.8 ,44.2 ,12.7 ,10.8 ,19.1 
2005/1/3,23:15:00,19.8 ,44.4 ,12.7 ,10.9 ,19.0 
2005/1/3,23:30:00,19.9 ,44.3 ,12.7 ,10.9 ,19.0 
2005/1/3,23:45:00,19.8 ,44.1 ,12.7 ,8.0 ,18.9 
2005/1/4,0:00:00,19.7 ,43.7 ,12.7 ,8.2 ,18.7 
2005/1/4,0:15:00,19.6 ,43.5 ,12.7 ,8.4 ,18.6 
2005/1/4,0:30:00,19.6 ,43.3 ,12.7 ,8.4 ,18.5 
2005/1/4,0:45:00,19.5 ,43.0 ,12.7 ,8.5 ,18.4 
2005/1/4,1:00:00,19.5 ,43.0 ,12.7 ,8.6 ,18.3 
2005/1/4,1:15:00,19.4 ,42.9 ,12.7 ,8.7 ,18.3 
2005/1/4,1:30:00,19.3 ,42.6 ,12.7 ,8.8 ,18.2 
2005/1/4,1:45:00,19.3 ,42.7 ,12.7 ,8.9 ,18.2 
2005/1/4,2:00:00,19.2 ,42.6 ,12.6 ,9.0 ,18.1 
2005/1/4,2:15:00,19.2 ,42.5 ,12.6 ,9.1 ,18.1 
2005/1/4,2:30:00,19.1 ,42.5 ,12.6 ,9.2 ,18.0 
2005/1/4,2:45:00,19.1 ,42.3 ,12.6 ,9.3 ,18.0 
2005/1/4,3:00:00,19.1 ,42.3 ,12.6 ,9.4 ,18.0 
2005/1/4,3:15:00,19.1 ,42.2 ,12.6 ,9.5 ,17.9 
2005/1/4,3:30:00,19.0 ,42.2 ,12.6 ,9.6 ,17.9 
2005/1/4,3:45:00,19.1 ,42.2 ,12.6 ,9.7 ,17.9 
2005/1/4,4:00:00,19.0 ,42.5 ,12.6 ,9.8 ,17.9 
2005/1/4,4:15:00,19.0 ,42.5 ,12.5 ,9.8 ,17.9 
2005/1/4,4:30:00,19.1 ,42.4 ,12.5 ,9.9 ,17.9 
2005/1/4,4:45:00,19.1 ,42.6 ,12.6 ,10.0 ,17.9 
2005/1/4,5:00:00,19.2 ,42.9 ,12.6 ,10.2 ,18.1 
2005/1/4,5:15:00,19.3 ,43.1 ,12.6 ,10.2 ,18.2 
2005/1/4,5:30:00,19.4 ,43.3 ,12.6 ,10.3 ,18.3 
2005/1/4,5:45:00,19.5 ,43.4 ,12.6 ,10.4 ,18.4 
2005/1/4,6:00:00,19.6 ,43.4 ,12.7 ,10.5 ,18.5 
2005/1/4,6:15:00,19.7 ,43.4 ,12.7 ,10.6 ,18.6 
2005/1/4,6:30:00,19.8 ,43.3 ,12.7 ,10.7 ,18.8 
2005/1/4,6:45:00,20.0 ,43.2 ,12.8 ,10.8 ,18.9 
2005/1/4,7:00:00,20.3 ,42.9 ,12.8 ,8.6 ,19.1 
2005/1/4,7:15:00,20.4 ,43.0 ,12.8 ,8.8 ,19.2 
2005/1/4,7:30:00,20.6 ,42.9 ,12.8 ,8.9 ,19.3 
2005/1/4,7:45:00,20.7 ,43.0 ,12.9 ,9.0 ,19.4 
2005/1/4,8:00:00,20.9 ,42.9 ,12.9 ,7.4 ,19.5 
2005/1/4,8:15:00,21.0 ,42.8 ,12.9 ,7.5 ,19.6 
2005/1/4,8:30:00,21.1 ,42.7 ,13.0 ,7.6 ,19.6 
2005/1/4,8:45:00,21.2 ,42.6 ,13.0 ,7.7 ,19.8 
2005/1/4,9:00:00,21.4 ,42.4 ,13.1 ,7.9 ,19.9 
2005/1/4,9:15:00,21.5 ,42.5 ,13.1 ,8.0 ,20.1 
2005/1/4,9:30:00,21.5 ,42.7 ,13.2 ,8.1 ,20.1 
2005/1/4,9:45:00,21.2 ,43.7 ,13.2 ,8.3 ,20.1 
2005/1/4,10:00:00,21.2 ,43.8 ,13.2 ,8.4 ,20.0 
2005/1/4,10:15:00,21.2 ,44.2 ,13.3 ,8.5 ,20.0 
2005/1/4,10:30:00,21.3 ,44.3 ,13.3 ,8.6 ,20.0 
2005/1/4,10:45:00,21.4 ,44.2 ,13.3 ,5.9 ,20.0 
2005/1/4,11:00:00,21.5 ,46.0 ,13.4 ,6.0 ,20.0 
2005/1/4,11:15:00,21.3 ,47.1 ,13.4 ,5.8 ,20.0 
2005/1/4,11:30:00,21.3 ,47.8 ,13.4 ,5.8 ,20.1 
2005/1/4,11:45:00,21.2 ,48.3 ,13.5 ,6.0 ,20.1 
2005/1/4,12:00:00,21.2 ,48.5 ,13.5 ,6.1 ,20.0 
2005/1/4,12:15:00,21.3 ,48.5 ,13.5 ,6.3 ,20.1 
2005/1/4,12:30:00,21.2 ,48.3 ,13.5 ,6.4 ,20.7 
2005/1/4,12:45:00,21.3 ,48.2 ,13.5 ,6.6 ,20.6 
2005/1/4,13:00:00,21.3 ,48.0 ,13.6 ,6.1 ,20.4 
2005/1/4,13:15:00,21.3 ,47.6 ,13.6 ,6.8 ,21.2 
2005/1/4,13:30:00,21.2 ,47.5 ,13.6 ,6.9 ,21.4 
2005/1/4,13:45:00,21.1 ,47.3 ,13.6 ,7.0 ,21.3 
2005/1/4,14:00:00,21.1 ,47.1 ,13.6 ,7.1 ,21.2 
2005/1/4,14:15:00,21.1 ,46.9 ,13.6 ,7.3 ,21.1 
2005/1/4,14:30:00,21.0 ,46.7 ,13.6 ,7.4 ,20.9 
2005/1/4,14:45:00,21.0 ,46.5 ,13.6 ,7.6 ,20.7 
2005/1/4,15:00:00,20.9 ,46.3 ,13.6 ,7.7 ,20.5 
2005/1/4,15:15:00,20.9 ,46.2 ,13.6 ,7.8 ,20.4 
2005/1/4,15:30:00,20.8 ,46.1 ,13.6 ,8.0 ,20.2 
2005/1/4,15:45:00,20.8 ,45.9 ,13.6 ,8.1 ,20.1 
2005/1/4,16:00:00,20.7 ,45.9 ,13.6 ,8.3 ,19.9 
2005/1/4,16:15:00,20.6 ,45.7 ,13.6 ,8.4 ,19.7 
2005/1/4,16:30:00,20.6 ,45.5 ,13.6 ,8.5 ,19.6 
2005/1/4,16:45:00,20.5 ,45.5 ,13.6 ,8.7 ,19.5 
2005/1/4,17:00:00,20.7 ,45.1 ,13.6 ,7.0 ,19.8 
2005/1/4,17:15:00,20.7 ,45.3 ,13.6 ,7.2 ,19.8 
2005/1/4,17:30:00,20.6 ,45.2 ,13.6 ,7.3 ,19.6 
2005/1/4,17:45:00,20.6 ,45.1 ,13.6 ,7.5 ,19.5 
2005/1/4,18:00:00,20.6 ,45.1 ,13.6 ,7.6 ,19.5 
2005/1/4,18:15:00,20.3 ,45.2 ,13.6 ,7.7 ,20.1 
2005/1/4,18:30:00,20.3 ,44.8 ,13.5 ,5.3 ,19.9 
2005/1/4,18:45:00,20.4 ,44.7 ,13.5 ,5.4 ,20.0 
2005/1/4,19:00:00,20.3 ,44.9 ,13.5 ,5.5 ,19.8 
2005/1/4,19:15:00,20.3 ,44.9 ,13.5 ,5.6 ,19.5 
2005/1/4,19:30:00,20.3 ,44.8 ,13.4 ,5.8 ,19.4 
2005/1/4,19:45:00,20.3 ,44.8 ,13.4 ,6.0 ,19.3 
2005/1/4,20:00:00,20.3 ,45.2 ,13.4 ,6.1 ,19.5 
2005/1/4,20:15:00,20.2 ,45.4 ,13.4 ,6.3 ,19.3 
2005/1/4,20:30:00,20.2 ,46.0 ,13.4 ,7.6 ,19.4 
2005/1/4,20:45:00,20.2 ,45.1 ,13.4 ,7.6 ,19.2 
2005/1/4,21:00:00,20.1 ,44.9 ,13.3 ,7.7 ,19.0 
2005/1/4,21:15:00,20.0 ,44.8 ,13.3 ,7.8 ,18.9 
2005/1/4,21:30:00,20.1 ,44.7 ,13.3 ,7.9 ,18.9 
2005/1/4,21:45:00,20.0 ,44.8 ,13.2 ,7.0 ,18.9 
2005/1/4,22:00:00,20.0 ,44.8 ,13.2 ,7.2 ,18.8 
2005/1/4,22:15:00,20.0 ,45.0 ,13.2 ,7.3 ,18.8 
2005/1/4,22:30:00,19.9 ,45.1 ,13.1 ,7.4 ,18.6 
2005/1/4,22:45:00,19.8 ,44.8 ,13.1 ,7.5 ,18.5 
2005/1/4,23:00:00,19.7 ,44.8 ,13.1 ,7.6 ,18.4 
2005/1/4,23:15:00,19.7 ,44.4 ,13.0 ,7.8 ,18.5 
2005/1/4,23:30:00,19.7 ,44.1 ,13.0 ,7.9 ,18.5 
2005/1/4,23:45:00,19.6 ,43.7 ,13.0 ,8.0 ,18.5 
2005/1/5,0:00:00,19.5 ,43.5 ,13.0 ,8.1 ,18.4 
2005/1/5,0:15:00,19.5 ,43.3 ,13.0 ,8.2 ,18.3 
2005/1/5,0:30:00,19.4 ,43.2 ,13.0 ,8.4 ,18.3 
2005/1/5,0:45:00,19.4 ,43.0 ,12.9 ,8.5 ,18.2 
2005/1/5,1:00:00,19.3 ,42.8 ,12.9 ,8.6 ,18.2 
2005/1/5,1:15:00,19.2 ,42.7 ,12.9 ,8.7 ,18.1 
2005/1/5,1:30:00,19.1 ,42.6 ,12.8 ,8.8 ,18.0 
2005/1/5,1:45:00,19.1 ,42.5 ,12.8 ,8.9 ,17.9 
2005/1/5,2:00:00,19.1 ,42.4 ,12.8 ,7.5 ,17.9 
2005/1/5,2:15:00,18.9 ,42.6 ,12.8 ,7.4 ,17.8 
2005/1/5,2:30:00,18.9 ,42.6 ,12.7 ,7.6 ,17.7 
2005/1/5,2:45:00,18.8 ,42.5 ,12.7 ,7.7 ,17.7 
2005/1/5,3:00:00,18.8 ,42.5 ,12.7 ,7.8 ,17.6 
2005/1/5,3:15:00,18.8 ,42.4 ,12.6 ,7.9 ,17.5 
2005/1/5,3:30:00,18.7 ,42.3 ,12.6 ,8.1 ,17.5 
2005/1/5,3:45:00,18.7 ,42.2 ,12.6 ,8.2 ,17.5 
2005/1/5,4:00:00,18.7 ,42.1 ,12.6 ,8.3 ,17.5 
2005/1/5,4:15:00,18.8 ,42.0 ,12.5 ,8.4 ,17.5 
2005/1/5,4:30:00,18.8 ,42.0 ,12.5 ,8.5 ,17.5 
2005/1/5,4:45:00,18.8 ,41.9 ,12.5 ,8.6 ,17.5 
2005/1/5,5:00:00,18.9 ,41.8 ,12.5 ,8.7 ,17.5 
2005/1/5,5:15:00,18.9 ,41.7 ,12.4 ,8.8 ,17.6 
2005/1/5,5:30:00,18.9 ,41.6 ,12.4 ,8.9 ,17.6 
2005/1/5,5:45:00,19.0 ,41.5 ,12.4 ,9.0 ,17.7 
2005/1/5,6:00:00,19.1 ,41.3 ,12.4 ,7.3 ,17.7 
2005/1/5,6:15:00,19.3 ,41.3 ,12.4 ,7.3 ,17.8 
2005/1/5,6:30:00,19.4 ,41.1 ,12.4 ,7.5 ,17.9 
2005/1/5,6:45:00,19.5 ,41.0 ,12.4 ,6.8 ,18.1 
2005/1/5,7:00:00,19.6 ,40.9 ,12.4 ,5.6 ,18.1 
2005/1/5,7:15:00,19.7 ,40.9 ,12.4 ,5.8 ,18.2 
2005/1/5,7:30:00,19.9 ,40.7 ,12.4 ,5.8 ,18.3 
2005/1/5,7:45:00,20.0 ,40.8 ,12.4 ,5.9 ,18.4 
2005/1/5,8:00:00,19.9 ,41.0 ,12.4 ,6.1 ,18.5 
2005/1/5,8:15:00,20.0 ,40.8 ,12.4 ,6.2 ,18.6 
2005/1/5,8:30:00,20.2 ,40.6 ,12.4 ,6.3 ,18.7 
2005/1/5,8:45:00,20.3 ,40.6 ,12.5 ,6.5 ,18.8 
2005/1/5,9:00:00,20.3 ,40.6 ,12.5 ,6.6 ,18.9 
2005/1/5,9:15:00,20.4 ,40.6 ,12.5 ,6.8 ,18.9 
2005/1/5,9:30:00,20.4 ,40.6 ,12.5 ,6.9 ,18.9 
2005/1/5,9:45:00,20.5 ,40.4 ,12.5 ,7.0 ,19.0 
2005/1/5,10:00:00,20.5 ,40.4 ,12.5 ,7.2 ,19.0 
2005/1/5,10:15:00,20.6 ,40.3 ,12.5 ,7.3 ,19.1 
2005/1/5,10:30:00,20.4 ,40.7 ,12.6 ,7.4 ,19.1 
2005/1/5,10:45:00,20.7 ,40.3 ,12.6 ,5.6 ,19.2 
2005/1/5,11:00:00,20.5 ,40.9 ,12.6 ,5.7 ,19.3 
2005/1/5,11:15:00,20.5 ,40.9 ,12.7 ,5.7 ,19.2 
2005/1/5,11:30:00,20.5 ,40.7 ,12.7 ,5.9 ,19.2 
2005/1/5,11:45:00,20.6 ,42.2 ,12.7 ,6.0 ,19.4 
2005/1/5,12:00:00,20.5 ,43.4 ,12.7 ,6.1 ,19.4 
2005/1/5,12:15:00,20.4 ,44.1 ,12.8 ,6.3 ,19.3 
2005/1/5,12:30:00,20.7 ,43.6 ,12.8 ,6.5 ,19.3 
2005/1/5,12:45:00,20.6 ,44.0 ,12.8 ,6.6 ,19.4 
2005/1/5,13:00:00,20.4 ,43.0 ,12.8 ,6.6 ,19.2 
2005/1/5,13:15:00,20.9 ,42.3 ,12.8 ,6.7 ,19.5 
2005/1/5,13:30:00,20.9 ,42.7 ,12.9 ,6.7 ,19.7 
2005/1/5,13:45:00,20.5 ,43.1 ,12.9 ,6.9 ,19.6 
2005/1/5,14:00:00,20.6 ,43.1 ,12.9 ,7.0 ,19.5 
2005/1/5,14:15:00,20.6 ,43.2 ,12.9 ,7.1 ,19.5 
2005/1/5,14:30:00,20.6 ,43.3 ,12.9 ,7.3 ,19.4 
2005/1/5,14:45:00,20.5 ,43.3 ,12.9 ,7.4 ,19.3 
2005/1/5,15:00:00,20.4 ,43.5 ,12.9 ,7.6 ,19.2 
2005/1/5,15:15:00,20.4 ,43.2 ,12.9 ,6.8 ,19.2 
2005/1/5,15:30:00,20.3 ,43.2 ,12.9 ,6.9 ,19.1 
2005/1/5,15:45:00,20.2 ,43.1 ,12.9 ,7.1 ,19.1 
2005/1/5,16:00:00,20.2 ,43.1 ,12.9 ,7.2 ,19.0 
2005/1/5,16:15:00,20.1 ,43.1 ,12.9 ,7.3 ,18.9 
2005/1/5,16:30:00,20.0 ,43.0 ,12.9 ,7.4 ,18.8 
2005/1/5,16:45:00,19.9 ,43.0 ,12.9 ,7.6 ,18.8 
2005/1/5,17:00:00,19.9 ,42.9 ,12.9 ,7.7 ,18.7 
2005/1/5,17:15:00,19.8 ,43.0 ,12.9 ,7.8 ,18.6 
2005/1/5,17:30:00,19.7 ,43.0 ,12.9 ,8.0 ,18.5 
2005/1/5,17:45:00,19.7 ,43.0 ,12.9 ,8.1 ,18.4 
2005/1/5,18:00:00,19.7 ,42.7 ,12.9 ,7.5 ,18.4 
2005/1/5,18:15:00,19.7 ,42.9 ,12.9 ,7.0 ,18.4 
2005/1/5,18:30:00,19.6 ,43.1 ,12.9 ,7.2 ,18.4 
2005/1/5,18:45:00,19.5 ,43.4 ,12.9 ,7.3 ,18.5 
2005/1/5,19:00:00,19.4 ,43.1 ,12.8 ,7.4 ,19.5 
2005/1/5,19:15:00,19.3 ,43.1 ,12.8 ,7.6 ,20.2 
2005/1/5,19:30:00,19.3 ,42.8 ,12.8 ,7.7 ,21.7 
2005/1/5,19:45:00,19.4 ,42.7 ,12.8 ,7.8 ,22.4 
2005/1/5,20:00:00,19.5 ,43.0 ,12.8 ,7.9 ,21.6 
2005/1/5,20:15:00,19.5 ,43.0 ,12.7 ,8.0 ,20.9 
2005/1/5,20:30:00,19.5 ,43.2 ,12.7 ,8.2 ,20.3 
2005/1/5,20:45:00,19.5 ,43.5 ,12.7 ,8.3 ,19.8 
2005/1/5,21:00:00,19.5 ,43.9 ,12.7 ,8.4 ,19.3 
2005/1/5,21:15:00,19.4 ,43.6 ,12.7 ,7.7 ,18.8 
2005/1/5,21:30:00,19.3 ,43.7 ,12.7 ,7.9 ,18.5 
2005/1/5,21:45:00,19.3 ,43.9 ,12.7 ,8.0 ,18.3 
2005/1/5,22:00:00,19.3 ,44.7 ,12.6 ,8.1 ,18.1 
2005/1/5,22:15:00,19.3 ,45.7 ,12.6 ,8.2 ,18.1 
2005/1/5,22:30:00,19.3 ,45.8 ,12.6 ,8.3 ,18.1 
2005/1/5,22:45:00,19.1 ,45.7 ,12.6 ,8.4 ,18.0 
2005/1/5,23:00:00,19.0 ,45.7 ,12.6 ,8.5 ,17.9 
2005/1/5,23:15:00,18.9 ,45.3 ,12.6 ,8.6 ,17.8 
2005/1/5,23:30:00,18.9 ,44.9 ,12.6 ,8.7 ,17.8 
2005/1/5,23:45:00,18.9 ,44.7 ,12.5 ,8.8 ,17.7 
2005/1/6,0:00:00,18.9 ,44.6 ,12.5 ,8.9 ,17.6 
2005/1/6,0:15:00,18.8 ,44.4 ,12.5 ,9.0 ,17.6 
2005/1/6,0:30:00,18.8 ,44.3 ,12.5 ,9.1 ,17.5 
2005/1/6,0:45:00,18.7 ,44.2 ,12.5 ,9.2 ,17.5 
2005/1/6,1:00:00,18.7 ,44.0 ,12.5 ,9.3 ,17.4 
2005/1/6,1:15:00,18.6 ,44.1 ,12.5 ,9.4 ,17.4 
2005/1/6,1:30:00,18.6 ,43.9 ,12.4 ,9.5 ,17.3 
2005/1/6,1:45:00,18.6 ,43.9 ,12.4 ,9.6 ,17.2 
2005/1/6,2:00:00,18.5 ,43.8 ,12.4 ,9.7 ,17.2 
2005/1/6,2:15:00,18.5 ,43.7 ,12.4 ,9.8 ,17.1 
2005/1/6,2:30:00,18.4 ,43.7 ,12.3 ,9.9 ,17.1 
2005/1/6,2:45:00,18.3 ,43.7 ,12.3 ,10.0 ,17.1 
2005/1/6,3:00:00,18.3 ,43.7 ,12.3 ,10.1 ,17.0 
2005/1/6,3:15:00,18.3 ,43.6 ,12.2 ,10.2 ,16.9 
2005/1/6,3:30:00,18.2 ,43.5 ,12.2 ,10.3 ,16.9 
2005/1/6,3:45:00,18.2 ,43.4 ,12.2 ,10.4 ,16.8 
2005/1/6,4:00:00,18.2 ,43.4 ,12.1 ,10.5 ,16.8 
2005/1/6,4:15:00,18.2 ,43.3 ,12.1 ,10.6 ,16.7 
2005/1/6,4:30:00,18.2 ,43.3 ,12.1 ,10.7 ,16.7 